P/2001 TU80 ( LINEAR-NEAT )

Japanese version
Home page
Total 6,336 html files since Dec. 4, 1995
Updated on April 23, 2002

---------------------------------------------------------------------

* Profile

Discovery Date October 13 and November 16, 2001
Magnitude 17.9 mag
Discoverer Lincoln Laboratory Near-Earth Asteroid Research project, Near-Earth-Asteroid Tracking Team (Jet Propulsion Laboratory)

* Orbital Elements

Epoch 2001 Nov. 27.0 TT = JDT 2452240.5
T 2001 Dec. 10.00143 TT                                 MPC
q   1.9325258            (2000.0)            P               Q
n   0.14072659     Peri.  355.13642     -0.24649218     -0.96306462
a   3.6605972      Node   109.10235     +0.89299660     -0.26915511
e   0.4720736      Incl.    6.58661     +0.37656164     +0.00787840
P   7.00

* Finding Charts

* Magnitudes Graph

        m1 = 14.0 + 5 log d + 10.0 log r  [  ,27]  (2002 Jan.  6 -             )
        m1 =  7.8 + 5 log d + 25.0 log r  [27,  ]  (             - 2002 Jan.  6)

---------------------------------------------------------------------

The orbital elements are calculated by Dr. Brian G. Marsden and printed on M.P.E.C. 2002-A89.
The charts are made with StellaNavigator Ver.2.0 for Windows (AstroArts / ASCII).
The magnitudes graphs are made with Comet for Windows.

---------------------------------------------------------------------

Copyright(C) 1995-2008 Seiichi Yoshida (comet@aerith.net). All rights reserved.